Phnom Penh, Cambodia

4:55 AM +07 on May 27, 2017 (GMT +0700)
Pochentong International

Weather History for VDPP - July, 2013

Change the Weather History Date:

Sunday, July 7, 2013

  Actual Average Record
Temperature  
Mean Temperature 83 °F -  
Max Temperature 89 °F 88 °F 95 °F (2010)
Min Temperature 77 °F 77 °F 75 °F (2005)
Cooling Degree Days 18    
Growing Degree Days 33 (Base 50)    
Moisture  
Dew Point 73 °F    
Average Humidity 72    
Maximum Humidity 89    
Minimum Humidity 52    
Precipitation  
Precipitation 0.00 in - - ()
Sea Level Pressure  
Sea Level Pressure 29.75 in    
Wind  
Wind Speed 6 mph ()    
Max Wind Speed 14 mph    
Max Gust Speed -    
Visibility 5.9 miles    
Events Rain , Thunderstorm    
Averages and records for this station are not official NWS values.
T = Trace of Precipitation, MM = Missing Value Source: Averaged Metar Reports

Daily Weather History Graph

Daily Weather History Graph

Search for Another Location

Airport or City:

Trip Planner

Search our weather history database for the weather conditions in past years. The results will help you decide how hot, cold, wet, or windy it might be!

Date:

Astronomy

Jul. 07, 2013 Rise Set
Actual Time 5:42 AM +07 6:28 PM +07
Civil Twilight 5:19 AM +07 6:51 PM +07
Nautical Twilight 4:52 AM +07 7:18 PM +07
Astronomical Twilight 4:24 AM +07 7:46 PM +07
Moon 4:42 AM +07 (7/7) 5:40 PM +07 (7/7)
Length of Visible Light 13h 32m
Length of Day
12h 46m
Waning Crescent, 1% of the Moon is Illuminated
Jul 7
Waning Crescent
Jul 8
New
Jul 16
First Quarter
Jul 23
Full
Jul 30
Last Quarter

Hourly Weather History & Observations

Time (+07) Temp. Heat Index Dew Point Humidity Pressure Visibility Wind Dir Wind Speed Gust Speed Precip Events Conditions
12:00 AM 80.6 °F 84.6 °F 71.6 °F 74% 29.77 in 5.6 mi SW 5.8 mph - N/A   Scattered Clouds
12:30 AM 80.6 °F 84.6 °F 71.6 °F 74% 29.77 in 5.6 mi SW 5.8 mph - N/A   Scattered Clouds
1:00 AM 80.6 °F 84.6 °F 71.6 °F 74% 29.74 in 5.6 mi South 2.3 mph - N/A   Scattered Clouds
6:00 AM 78.8 °F - 73.4 °F 83% 29.74 in 6.2 mi South 3.5 mph - N/A   Scattered Clouds
6:30 AM 78.8 °F - 73.4 °F 83% 29.74 in 6.2 mi South 4.6 mph - N/A   Scattered Clouds
7:00 AM 78 °F - 75 °F 88% 29.79 in 6 mi Calm Calm - -   Overcast
7:00 AM 78.8 °F - 73.4 °F 83% 29.74 in 6.2 mi SSW 4.6 mph - N/A   Scattered Clouds
7:30 AM 80.6 °F 85.4 °F 73.4 °F 79% 29.74 in 6.2 mi South 5.8 mph - N/A   Scattered Clouds
8:00 AM 80.6 °F 85.4 °F 73.4 °F 79% 29.74 in 6.2 mi SSW 5.8 mph - N/A   Scattered Clouds
8:30 AM 82.4 °F 88.2 °F 73.4 °F 74% 29.77 in 6.2 mi SSW 6.9 mph - N/A   Scattered Clouds
9:00 AM 84.2 °F 89.6 °F 71.6 °F 66% 29.77 in 6.2 mi SSW 8.1 mph - N/A   Scattered Clouds
9:30 AM 84.2 °F 90.9 °F 73.4 °F 70% 29.77 in 6.2 mi SW 9.2 mph - N/A   Scattered Clouds
10:00 AM 86.0 °F 91.8 °F 71.6 °F 62% 29.77 in 6.2 mi SW 9.2 mph - N/A   Scattered Clouds
10:30 AM 86.0 °F 91.8 °F 71.6 °F 62% 29.77 in 6.2 mi WSW 9.2 mph - N/A   Scattered Clouds
11:00 AM 86.0 °F 91.8 °F 71.6 °F 62% 29.77 in 6.2 mi SW 8.1 mph - N/A   Scattered Clouds
11:30 AM 87.8 °F 93.8 °F 71.6 °F 58% 29.77 in 6.2 mi West 8.1 mph - N/A   Scattered Clouds
12:00 PM 87.8 °F 93.8 °F 71.6 °F 58% 29.77 in 6.2 mi WSW 8.1 mph - N/A   Scattered Clouds
12:30 PM 87.8 °F 93.8 °F 71.6 °F 58% 29.77 in 6.2 mi West 9.2 mph - N/A   Scattered Clouds
1:00 PM 89.6 °F 96.2 °F 71.6 °F 55% 29.74 in 6.2 mi West 6.9 mph - N/A   Scattered Clouds
1:30 PM 89.6 °F 96.2 °F 71.6 °F 55% 29.74 in 6.2 mi WNW 6.9 mph - N/A   Scattered Clouds
2:00 PM 89.6 °F 96.2 °F 71.6 °F 55% 29.71 in 6.2 mi SW 12.7 mph - N/A   Scattered Clouds
2:30 PM 89.6 °F 94.7 °F 69.8 °F 52% 29.71 in 6.2 mi WSW 10.4 mph - N/A   Scattered Clouds
3:00 PM 86.0 °F 91.8 °F 71.6 °F 62% 29.71 in 6.2 mi SW 12.7 mph - N/A   Scattered Clouds
3:30 PM 86.0 °F 93.4 °F 73.4 °F 66% 29.68 in 6.2 mi WSW 9.2 mph - N/A   Mostly Cloudy
4:00 PM 86.0 °F 91.8 °F 71.6 °F 62% 29.68 in 6.2 mi West 5.8 mph - N/A   Mostly Cloudy
4:30 PM 87.8 °F 91.4 °F 68.0 °F 52% 29.68 in 6.2 mi SSW 13.8 mph - N/A   Mostly Cloudy
5:00 PM 87.8 °F 93.8 °F 71.6 °F 58% 29.68 in 6.2 mi South 11.5 mph - N/A   Mostly Cloudy
5:30 PM 82.4 °F 89.5 °F 75.2 °F 79% 29.68 in 6.2 mi South 9.2 mph - N/A   Mostly Cloudy
6:00 PM 84.2 °F 90.9 °F 73.4 °F 70% 29.68 in 5.6 mi South 9.2 mph - N/A Rain Light Rain
7:00 PM 82.4 °F 90.9 °F 77.0 °F 84% 29.71 in 5.6 mi South 4.6 mph - N/A   Scattered Clouds
7:30 PM 82.4 °F 90.9 °F 77.0 °F 84% 29.71 in 5.6 mi North 9.2 mph - N/A   Scattered Clouds
8:00 PM 80.6 °F 86.2 °F 75.2 °F 84% 29.77 in 5.6 mi North 4.6 mph - N/A   Scattered Clouds
8:30 PM 78.8 °F - 73.4 °F 83% 29.77 in 3.7 mi North 6.9 mph - N/A Rain , Thunderstorm Thunderstorms and Rain
9:00 PM 78.8 °F - 73.4 °F 83% 29.80 in 5.6 mi North 3.5 mph - N/A   Scattered Clouds
9:30 PM 78.8 °F - 75.2 °F 89% 29.80 in 5.0 mi NNE 8.1 mph - N/A Thunderstorm Thunderstorm
10:00 PM 78.8 °F - 75.2 °F 89% 29.80 in 5.0 mi ENE 3.5 mph - N/A Thunderstorm Thunderstorm
10:30 PM 78.8 °F - 75.2 °F 89% 29.80 in 5.0 mi East 5.8 mph - N/A Rain , Thunderstorm Light Thunderstorms and Rain
11:00 PM 77.0 °F - 73.4 °F 89% 29.80 in 5.0 mi East 8.1 mph - N/A Rain , Thunderstorm Light Thunderstorms and Rain
11:30 PM 77.0 °F - 73.4 °F 89% 29.80 in 5.0 mi ENE 8.1 mph - N/A Thunderstorm Thunderstorm